www.pogodaiklimat.ru

Погода и климат >> Архив погоды >> Китай >> Синьцзян-Уйгурский автономный район >> Тажонг


ПОГОДА в Тажонге

  • Прогноз погоды в Тажонге
  • Монитор погоды в Тажонге

АРХИВ ПОГОДЫ в Тажонге

Время (UTC), дата Ветер
(напр.,м/с)
 
Видим.   Явления Облачность Т
(С)
Тd
(С)
f
(%)
Тe
(С)
Тes
(С)
Комфортность P
(гПа)
Po
(гПа)
Тmin
(С)
Tmax
(С)
R
(мм)
R24
(мм)
S
(см)
00 16.04 штиль 0 20 км 4/4
[]
+5.9 -4.8 46 +6 +6 1001.6 875.5
03 16.04 Ю 4 30 км 1/1
[]
+24.8 -15.2 6 +22 +26 комфорт 1000.0 881.6
06 16.04 СВ 4 14 км 1/1
[]
+30.6 -7.4 8 +27 +37 жарко 997.2 881.2 +5.5
09 16.04 В 4 16 км 3/3
[]
+32.8 -7.5 7 +29 +34 жарко 994.6 879.7
12 16.04 В 5 16 км 9/9
[]
+30.5 -7.5 8 +27 +27 жарко 993.9 878.3
15 16.04 В 3 17 км н/о +24.4 -5.8 13 +22 +22 комфорт 992.4 874.7
18 16.04 СВ 2 18 км н/о +13.8 -4.4 28 +14 +14 993.1 871.3 +32.8
21 16.04 С 1 18 км н/о +10.3 -4.1 36 +11 +11 993.0 869.8
00 17.04 ЮВ 1 16 км 9/9
[]
+9.3 -3.9 39 +9 +9 994.4 875.7
03 17.04 В 6 12 км н/о +24.5 -5.6 13 +22 +22 комфорт 994.2 876.3
06 17.04 ЮВ 5 11 км 9/9
[]
+30.5 -5.9 9 +27 +28 жарко 995.3 879.5 +8.7
09 17.04 В 4 8000 м 9/9
[]
+32.0 -4.8 9 +28 +29 жарко 994.4 879.2
12 17.04 В 5 4400 м пыль 9/9
[]
+29.2 -3.1 12 +26 +26 жарко 995.6 879.3
15 17.04 В 4 2900 м мгла н/о +25.7 -2.9 15 +24 +24 комфорт 995.8 878.2
18 17.04 В 3 900 м мгла ?/? +24.2 -4.0 15 +22 +22 комфорт 995.5 877.4 +32.3
21 17.04 В 3 700 м мгла н/о +22.2 -4.0 17 +21 +21 комфорт 996.3 877.3
00 18.04 В 3 1200 м пыль н/о +20.2 -4.1 19 +20 +20 999.4 879.3
03 18.04 В 5 3600 м пыль 9/9 1500 м
[]
+20.3 -4.1 19 +20 +20 1002.7 882.2
06 18.04 В 5 н/о пыль 9/9 1500 м
[]
+23.1 -2.5 18 +22 +22 комфорт 1002.9 883.5 +19.7
09 18.04 В 4 7000 м пыль 9/9 1500 м
[]
+24.8 -2.7 16 +23 +24 комфорт 1002.7 883.9
12 18.04 В 3 7000 м мгла 9/9 1500 м
[]
+24.1 -1.7 18 +23 +23 комфорт 1004.0 884.8
15 18.04 В 2 7000 м мгла н/о +21.6 -1.0 22 +21 +21 комфорт 1007.6 887.0
18 18.04 В 2 6000 м мгла ?/? +19.1 -0.3 27 +20 +20 1009.1 887.4 +25.1
21 18.04 В 1 4600 м мгла н/о +18.0 +0.6 31 +19 +19 1009.0 886.9
00 19.04 Ю 1 3500 м пыль 8/8
[]
+15.2 +1.3 39 +16 +16 1010.2 886.8
03 19.04 Ю 5 6000 м пыль 9/9
[]
+22.8 +4.3 30 +23 +23 комфорт 1011.0 890.5
06 19.04 ЮВ 4 6000 м пыль 4/4
[]
+26.7 +2.6 21 +25 +32 комфорт 1009.3 890.5 +14.4
09 19.04 З 2 6000 м пыль 9/9
[]
+28.4 +1.0 17 +26 +27 жарко 1006.7 888.8
12 19.04 Ю 2 7000 м пыль ясно +27.4 +0.2 17 +25 +26 комфорт 1005.8 887.6
15 19.04 ЮВ 3 7000 м мгла н/о +22.9 +0.7 23 +22 +22 комфорт 1006.0 886.1
18 19.04 Ю 3 7000 м н/о +20.2 +2.1 30 +21 +21 комфорт 1005.1 884.3 +28.7
21 19.04 Ю 2 8000 м н/о +16.8 +2.8 39 +17 +17 1004.7 882.6
00 20.04 Ю 1 9000 м 9/9
[]
+12.5 +2.9 52 +13 +13 1005.4 881.5
03 20.04 Ю 3 10 км 8/8
[]
+24.2 +2.9 25 +23 +25 комфорт 1004.2 885.0
06 20.04 В 4 10 км ясно +29.3 -3.0 12 +26 +38 жарко 1002.3 885.3 +12.4
09 20.04 В 2 13 км ясно +31.4 -3.9 10 +28 +40 жарко 999.8 883.8
12 20.04 СВ 3 18 км 3/3
[]
+29.6 -5.2 10 +26 +27 жарко 1000.1 881.2
15 20.04 В 2 20 км н/о +17.7 -3.7 23 +18 +18 1000.8 879.6
18 20.04 С 1 19 км н/о +11.5 -4.2 33 +12 +12 1001.2 877.4 +31.6
21 20.04 штиль 0 17 км н/о +8.2 -3.3 44 +8 +8 1000.9 875.8
00 21.04 С 1 15 км ясно +6.1 -3.0 52 +6 +6 1001.6 875.6
03 21.04 ЮВ 4 18 км ясно +25.8 -8.1 10 +23 +29 комфорт 1000.2 882.1
06 21.04 В 4 14 км 8/8
[]
+31.2 -6.9 8 +27 +30 жарко 999.5 883.5 +6.1
09 21.04 В 3 17 км 3/3
[]
+32.6 -9.6 6 +28 +35 жарко 997.6 882.3
12 21.04 СВ 5 18 км ясно +31.5 -10.4 6 +27 +28 жарко 997.7 878.2
15 21.04 В 2 12 км н/о +22.9 -6.0 14 +21 +21 комфорт 996.7 877.9
18 21.04 СВ 2 13 км н/о +15.0 -3.8 27 +15 +15 998.3 876.3 +33.1
21 21.04 Ю 1 12 км н/о +10.4 -2.6 40 +11 +11 998.8 874.9
00 22.04 штиль 0 13 км 8/8
[]
+8.1 -2.8 46 +8 +8 1000.0 880.6
03 22.04 ЮВ 5 11 км 3/3
[]
+27.7 -9.5 8 +24 +27 комфорт 998.4 881.2
06 22.04 ЮВ 3 11 км 1/1
[]
+32.7 -7.6 7 +28 +42 жарко 997.1 881.9 +8.0
09 22.04 ЮВ 2 15 км 3/3
[]
+33.8 -8.8 6 +29 +38 жарко 995.5 880.8
12 22.04 В 2 16 км 9/9
[]
+32.4 -9.8 6 +28 +28 жарко 995.8 880.6
15 22.04 С 3 11 км н/о +29.5 -8.2 8 +26 +26 жарко 994.4 878.3
18 22.04 В 4
{17}
1100 м в посл. час морось ?/? +25.7 -1.2 17 +24 +24 комфорт 997.6 879.8 +34.3
21 22.04 С 3
{17}
1700 м мгла ?/? +21.9 -0.8 22 +21 +21 комфорт 998.3 879.0

 

Местоположение метеостанции Тажонг (Синьцзян-Уйгурский автономный район, Китай): широта 39.00 долгота 83.67 высота над уровнем моря 1099 м.

В архиве по умолчанию представлена погода в Тажонге за последнюю неделю. Архивные данные за месяц целиком и за предыдущие месяцы, начиная с января 2011 года, Вы можете получить, выбрав интересующий диапазон дат из раскрывающегося списка и нажав кнопку "Ввод!".


*Определитесь, кто Вы:
робот инопланетянин человек

Внимание! Время в таблицах - всемирное. Для получения местного времени необходимо прибавить поправку, которая равна 8 ч.

Смотрите также архив погоды в соседних городах и на ближайших метеорологических станциях:

Погода в Аларе (Синьцзян-Уйгурский автономный район, Китай) (279 км)
Погода в Куче (Синьцзян-Уйгурский автономный район, Китай) (309 км)
Погода в Корле (Синьцзян-Уйгурский автономный район, Китай) (370 км)
Погода в Хотане (Синьцзян-Уйгурский автономный район, Китай) (388 км)
Погода в Чарклыке (Синьцзян-Уйгурский автономный район, Китай) (389 км)
Погода в Тиканлике (Синьцзян-Уйгурский автономный район, Китай) (389 км)
Погода в Бачу (Синьцзян-Уйгурский автономный район, Китай) (447 км)
Погода в Баянбулаке (Синьцзян-Уйгурский автономный район, Китай) (450 км)
Погода в Балун Тай Кун (Синьцзян-Уйгурский автономный район, Китай) (465 км)
Погода в Акчи (Синьцзян-Уйгурский автономный район, Китай) (494 км)

Пояснения к столбцам:

Ветер - указаны скорость ветра в м/с - средняя за 10 мин, порывы в срок и между сроками (в фигурных скобках) и направление, откуда дует ветер: С - северный, СВ - северо-восточный, В - восточный, ЮВ - юго-восточный, Ю - южный, ЮЗ - юго-западный, З - западный, СЗ - северо-западный.
Видимость - горизонтальная дальность видимости в метрах или километрах. При видимости от 1 до 10 км при отсутствии осадков обычно наблюдается дымка, при ухудшении видимости до 1 км и менее - туман. В сухую погоду видимость может ухудшаться дымом, пылью или мглою.
Явления - указаны атмосферные явления, наблюдавшиеся в срок или в последний час перед сроком; фигурными скобками обозначены явления, наблюдавшиеся между сроками (за 1-3 часа до срока); квадратными скобками обозначены град или гололедные отложения с указанием их диаметра в мм.
Облачность - указаны через наклонную черту общая и нижняя облачность в баллах и высота нижней границы облаков в метрах; квадратными скобками обозначены формы облаков: Ci - перистые, Cs - перисто-слоистые, Cc - перисто-кучевые, Ac - высококучевые, As - высокослоистые, Sc - слоисто-кучевые, Ns - слоисто-дождевые, Cu - кучевые, Cb - кучево-дождевые. Подробнее классификацию облаков см. в Атласе облаков (PDF).
T - Температура воздуха - температура, измеренная на высоте 2 м над землей.
Td - Температура точки росы - температура, при понижении до которой содержащийся в воздухе водяной пар достигнет насыщения.
f - Относительная влажность воздуха - влажноcть воздуха, измеренная на высоте 2 м над землей.
Te - Эффективная температура - температура, которую ощущает одетый по сезону человек в тени. Характеристика душности погоды. При расчете учитывается влияние влажности воздуха и скорости ветра на теплоощущения человека.
Tes - Эффективная температура на солнце - температура, которую ощущает человек, с поправкой на солнечный нагрев. Характеристика знойности погоды. Зависит от высоты солнца над горизонтом, облачности и скорости ветра. Ночью, в пасмурную погоду, а также при ветре 12 м/с и более поправка равна нулю.
P - Атмосферное давление - приведенное к уровню моря атмосферное давление.
Po - Атмосферное давление - измеренное на уровне метеостанции атмосферное давление.
Tmin - Минимальная температура - минимум температуры воздуха на высоте 2 м над землей.
Tmax - Максимальная температура - максимум температуры воздуха на высоте 2 м над землей.
R - Количество осадков - Количество выпавших осадков за период времени, мм. При наведении курсора мыши на число - период времени, за который выпало указанное количество осадков.
R24 - Количество осадков - Количество выпавших осадков за 24 часа, мм.
S - Снежный покров - Высота снежного покрова, см. При наведении курсора мыши на число - состояние снежного покрова и степень покрытия местности в баллах.